This is the latest recevied weather packets stored in our database for station/object KR4ELZ. If no packets are shown the sender has not sent any weather packets the latest 10 day(s).
| Time | Temp. | Humidity | Pressure | Rain* | Wind** | Luminosity | Snow |
|---|---|---|---|---|---|---|---|
| 1777731421 | 16.67° C | 54% | 1017.6 hPa | 0 mm | - | 389 W/m² | - |
| 1777731119 | 16.11° C | 52% | 1017.7 hPa | 0 mm | - | 373 W/m² | - |
| 1777730513 | 16.67° C | 52% | 1017.6 hPa | 0 mm | - | 345 W/m² | - |
| 1777730209 | 16.11° C | 53% | 1017.5 hPa | 0 mm | - | 332 W/m² | - |
| 1777729906 | 16.11° C | 54% | 1017.6 hPa | 0 mm | - | 317 W/m² | - |
| 1777729603 | 15.56° C | 61% | 1017.6 hPa | 0 mm | - | 302 W/m² | - |
| 1777729299 | 15° C | 55% | 1017.5 hPa | 0 mm | - | 288 W/m² | - |
| 1777728996 | 13.89° C | 60% | 1017.5 hPa | 0 mm | - | 258 W/m² | - |
| 1777728693 | 14.44° C | 60% | 1017.5 hPa | 0 mm | - | 42 W/m² | - |
| 1777728390 | 14.44° C | 62% | 1017.6 hPa | 0 mm | - | 41 W/m² | - |
| 1777728087 | 14.44° C | 66% | 1017.5 hPa | 0 mm | - | 223 W/m² | - |
| 1777727784 | 13.89° C | 66% | 1017.3 hPa | 0 mm | - | 107 W/m² | - |
| 1777727481 | 12.78° C | 65% | 1017.3 hPa | 0 mm | - | 43 W/m² | - |
| 1777727178 | 12.22° C | 68% | 1017.2 hPa | 0 mm | - | 38 W/m² | - |
| 1777726876 | 11.67° C | 70% | 1017.4 hPa | 0 mm | - | 49 W/m² | - |
| 1777726571 | 10.56° C | 80% | 1017.3 hPa | 0 mm | - | 47 W/m² | - |
| 1777726269 | 9.44° C | 84% | 1017.5 hPa | 0 mm | - | 33 W/m² | - |
| 1777725966 | 8.89° C | 89% | 1017.3 hPa | 0 mm | - | 32 W/m² | - |
| 1777725663 | 7.78° C | 91% | 1017.1 hPa | 0 mm | - | 27 W/m² | - |
| 1777725361 | 7.78° C | 93% | 1017.1 hPa | 0 mm | - | 26 W/m² | - |
| 1777725058 | 7.22° C | 93% | 1017.2 hPa | 0 mm | - | 24 W/m² | - |
| 1777724754 | 7.22° C | 94% | 1017.2 hPa | 0 mm | - | 23 W/m² | - |
| 1777724452 | 6.67° C | 94% | 1017.1 hPa | 0 mm | - | 22 W/m² | - |
| 1777724149 | 6.67° C | 94% | 1017.1 hPa | 0 mm | - | 21 W/m² | - |
| 1777723846 | 6.11° C | 94% | 1016.9 hPa | 0 mm | - | 19 W/m² | - |
* Rain latest hour (hover to see other rain measurements)
** Current wind speed in m/s (hover to see current wind gust speed)